GDANC EGSQ-EGHC

Flight info

Callsign GDANC
Flight time N/A
Altitude 2700
Route VIA COLCHESTER EGSU OXFORD WANTAGE WROUGHTON OKEHAMPTON TRURO VOR DE LND
Aircraft C172/L-VGD/A

Departure

Time 2026-04-26 15:34
Airport Clacton Airfield (EGSQ)

Arrival

Time N/A
Airport Land's End Airport (EGHC)
Time Latitude Longitude Altitude Speed Heading
2026-04-26 15:21 51.78212 1.13140 35 ft 0 kts 302°
2026-04-26 15:29 51.78213 1.13138 38 ft 2 kts 294°
2026-04-26 15:29 51.78256 1.13104 36 ft 9 kts 345°
2026-04-26 15:29 51.78365 1.13058 35 ft 10 kts 354°
2026-04-26 15:30 51.78475 1.12988 36 ft 6 kts 297°
2026-04-26 15:30 51.78506 1.12959 36 ft 6 kts 348°
2026-04-26 15:30 51.78545 1.12950 36 ft 7 kts 353°
2026-04-26 15:31 51.78591 1.12929 35 ft 7 kts 358°
2026-04-26 15:31 51.78608 1.12929 35 ft 2 kts
2026-04-26 15:31 51.78656 1.12942 37 ft 5 kts 18°
2026-04-26 15:32 51.78726 1.12958 36 ft 8 kts 10°
2026-04-26 15:32 51.78773 1.13001 36 ft 8 kts 155°
2026-04-26 15:32 51.78546 1.13011 35 ft 55 kts 179°
2026-04-26 15:33 51.78085 1.12970 130 ft 70 kts 174°
2026-04-26 15:33 51.77579 1.12977 279 ft 74 kts 169°
2026-04-26 15:33 51.77041 1.12998 397 ft 77 kts 169°
2026-04-26 15:33 51.76515 1.12810 556 ft 84 kts 201°
2026-04-26 15:34 51.76076 1.12181 734 ft 85 kts 234°
2026-04-26 15:34 51.75900 1.11307 942 ft 81 kts 273°
2026-04-26 15:34 51.76114 1.10454 1105 ft 82 kts 316°
2026-04-26 15:34 51.76475 1.09732 1265 ft 82 kts 318°
2026-04-26 15:35 51.76873 1.09071 1397 ft 85 kts 318°
2026-04-26 15:35 51.77304 1.08375 1568 ft 85 kts 321°
2026-04-26 15:35 51.77726 1.07666 1756 ft 88 kts 320°
2026-04-26 15:35 51.78160 1.06980 1986 ft 86 kts 319°
2026-04-26 15:36 51.78598 1.06351 2175 ft 85 kts 325°
2026-04-26 15:36 51.79023 1.05713 2384 ft 83 kts 319°
2026-04-26 15:36 51.79438 1.04998 2566 ft 86 kts 317°
2026-04-26 15:36 51.79849 1.04324 2854 ft 77 kts 320°
2026-04-26 15:37 51.80259 1.03640 2902 ft 93 kts 321°
2026-04-26 15:37 51.80772 1.02902 2918 ft 107 kts 323°
2026-04-26 15:37 51.81295 1.01964 2905 ft 115 kts 310°
2026-04-26 15:37 51.81787 1.00902 2901 ft 120 kts 310°
2026-04-26 15:38 51.82108 1.00207 2937 ft 104 kts 311°
2026-04-26 15:38 51.82228 0.99946 2921 ft 112 kts 310°
2026-04-26 15:38 51.82722 0.98899 2904 ft 121 kts 313°
2026-04-26 15:39 51.83340 0.97974 2796 ft 120 kts 328°
2026-04-26 15:39 51.83958 0.97143 2804 ft 114 kts 309°
2026-04-26 15:39 51.84480 0.96181 2797 ft 113 kts 314°
2026-04-26 15:39 51.84828 0.95562 2808 ft 112 kts 314°
2026-04-26 15:40 51.85509 0.94336 2871 ft 106 kts 313°
2026-04-26 15:40 51.85990 0.93423 2902 ft 108 kts 311°
2026-04-26 15:40 51.86476 0.92481 2913 ft 111 kts 311°
2026-04-26 15:40 51.86981 0.91510 2913 ft 114 kts 312°
2026-04-26 15:41 51.87504 0.90544 2903 ft 116 kts 314°
2026-04-26 15:41 51.88041 0.89569 2905 ft 117 kts 314°
2026-04-26 15:41 51.88585 0.88588 2905 ft 117 kts 313°
2026-04-26 15:41 51.89125 0.87620 2902 ft 115 kts 313°
2026-04-26 15:42 51.89647 0.86628 2899 ft 116 kts 311°
2026-04-26 15:42 51.90162 0.85622 2908 ft 117 kts 312°
2026-04-26 15:42 51.90681 0.84598 2910 ft 118 kts 312°
2026-04-26 15:42 51.91207 0.83575 2902 ft 117 kts 311°
2026-04-26 15:43 51.91725 0.82563 2900 ft 116 kts 311°
2026-04-26 15:43 51.92238 0.81542 2905 ft 118 kts 311°
2026-04-26 15:43 51.93269 0.79509 2902 ft 115 kts 311°
2026-04-26 15:44 51.93773 0.78503 2901 ft 116 kts 311°
2026-04-26 15:44 51.94789 0.76498 2890 ft 116 kts 311°
2026-04-26 15:44 51.95301 0.75486 2888 ft 116 kts 311°
2026-04-26 15:45 51.96318 0.73474 2889 ft 116 kts 311°
2026-04-26 15:45 51.96834 0.72461 2890 ft 116 kts 311°
2026-04-26 15:46 51.97852 0.70429 2886 ft 117 kts 311°
2026-04-26 15:46 51.98369 0.69402 2888 ft 118 kts 311°
2026-04-26 15:46 51.98886 0.68375 2887 ft 117 kts 311°
2026-04-26 15:46 51.99227 0.67691 2876 ft 118 kts 310°
2026-04-26 15:47 51.99910 0.66314 2886 ft 116 kts 310°
2026-04-26 15:47 52.00935 0.64244 2890 ft 119 kts 310°
2026-04-26 15:47 52.01456 0.63203 2891 ft 119 kts 310°
2026-04-26 15:48 52.01968 0.62173 2890 ft 118 kts 310°
2026-04-26 15:48 52.02482 0.61135 2888 ft 118 kts 310°
2026-04-26 15:48 52.02996 0.60107 2886 ft 117 kts 310°
2026-04-26 15:48 52.03505 0.59086 2880 ft 116 kts 310°
2026-04-26 15:49 52.04009 0.58060 2877 ft 116 kts 310°
2026-04-26 15:49 52.04515 0.57043 2879 ft 116 kts 310°
2026-04-26 15:49 52.05010 0.56021 2881 ft 115 kts 310°
2026-04-26 15:49 52.05509 0.55000 2879 ft 116 kts 310°
2026-04-26 15:50 52.06010 0.53979 2878 ft 115 kts 310°
2026-04-26 15:50 52.06504 0.52957 2875 ft 115 kts 310°
2026-04-26 15:50 52.06993 0.51939 2874 ft 114 kts 310°
2026-04-26 15:50 52.07476 0.50933 2876 ft 111 kts 310°
2026-04-26 15:51 52.07947 0.49944 2874 ft 110 kts 310°
2026-04-26 15:51 52.08418 0.48974 2878 ft 110 kts 307°
2026-04-26 15:51 52.08921 0.47992 2868 ft 115 kts 310°
2026-04-26 15:51 52.09436 0.46992 2883 ft 116 kts 310°
2026-04-26 15:52 52.09949 0.45995 2881 ft 117 kts 310°
2026-04-26 15:52 52.10470 0.44974 2883 ft 117 kts 310°
2026-04-26 15:52 52.10991 0.43947 2879 ft 118 kts 309°
2026-04-26 15:52 52.11343 0.43256 2879 ft 118 kts 310°
2026-04-26 15:53 52.12033 0.41902 2878 ft 117 kts 309°
2026-04-26 15:53 52.12551 0.40884 2879 ft 117 kts 309°
2026-04-26 15:53 52.12941 0.39749 2865 ft 118 kts 270°
2026-04-26 15:53 52.12827 0.38439 2881 ft 117 kts 260°
2026-04-26 15:54 52.12680 0.37134 2883 ft 117 kts 259°
2026-04-26 15:54 52.12524 0.35832 2881 ft 117 kts 259°
2026-04-26 15:54 52.12369 0.34537 2882 ft 116 kts 258°
2026-04-26 15:54 52.12222 0.33260 2882 ft 117 kts 259°
2026-04-26 15:55 52.12068 0.31960 2874 ft 117 kts 259°
2026-04-26 15:55 52.11905 0.30675 2881 ft 116 kts 256°
2026-04-26 15:55 52.11720 0.29392 2881 ft 116 kts 256°
2026-04-26 15:55 52.11540 0.28108 2877 ft 116 kts 257°
2026-04-26 15:56 52.11370 0.26832 2882 ft 115 kts 257°
2026-04-26 15:56 52.11193 0.25555 2876 ft 116 kts 256°
2026-04-26 15:56 52.11012 0.24280 2884 ft 116 kts 256°
2026-04-26 15:56 52.10839 0.23015 2883 ft 117 kts 256°
2026-04-26 15:57 52.10652 0.21721 2884 ft 118 kts 253°
2026-04-26 15:57 52.10424 0.20433 2880 ft 118 kts 253°
2026-04-26 15:57 52.10194 0.19161 2877 ft 117 kts 254°
2026-04-26 15:57 52.10051 0.18314 2875 ft 117 kts 254°
2026-04-26 15:58 52.09764 0.16595 2876 ft 117 kts 254°
2026-04-26 15:58 52.09555 0.15335 2873 ft 117 kts 254°
2026-04-26 15:58 52.09337 0.14055 2871 ft 115 kts 253°
2026-04-26 15:58 52.09125 0.12814 2871 ft 116 kts 254°
2026-04-26 15:59 52.08909 0.11561 2870 ft 115 kts 253°
2026-04-26 15:59 52.08692 0.10312 2865 ft 115 kts 253°
2026-04-26 15:59 52.08474 0.09056 2866 ft 115 kts 254°
2026-04-26 15:59 52.08232 0.07810 2865 ft 115 kts 250°
2026-04-26 16:00 52.07949 0.06594 2870 ft 114 kts 249°
2026-04-26 16:00 52.07669 0.05386 2875 ft 113 kts 250°
2026-04-26 16:00 52.07509 0.04582 2893 ft 114 kts 252°
2026-04-26 16:00 52.07193 0.02955 2893 ft 114 kts 252°
2026-04-26 16:01 52.06956 0.01734 2892 ft 113 kts 252°
2026-04-26 16:01 52.06720 0.00511 2893 ft 114 kts 251°
2026-04-26 16:01 52.06488 -0.00722 2890 ft 114 kts 252°
2026-04-26 16:01 52.06336 -0.01548 2890 ft 115 kts 252°
2026-04-26 16:02 52.06103 -0.02794 2898 ft 115 kts 252°
2026-04-26 16:02 52.05870 -0.04048 2896 ft 116 kts 252°
2026-04-26 16:02 52.05647 -0.05296 2891 ft 114 kts 252°
2026-04-26 16:02 52.05504 -0.06112 2904 ft 112 kts 252°
2026-04-26 16:03 52.05211 -0.07747 2901 ft 113 kts 252°
2026-04-26 16:03 52.04972 -0.08967 2902 ft 114 kts 250°
2026-04-26 16:03 52.04721 -0.10193 2902 ft 115 kts 250°
2026-04-26 16:03 52.04462 -0.11418 2898 ft 115 kts 250°
2026-04-26 16:04 52.04201 -0.12626 2903 ft 115 kts 250°
2026-04-26 16:04 52.03939 -0.13865 2910 ft 117 kts 250°
2026-04-26 16:04 52.03674 -0.15134 2909 ft 119 kts 250°
2026-04-26 16:04 52.03402 -0.16403 2909 ft 119 kts 250°
2026-04-26 16:05 52.03130 -0.17678 2913 ft 120 kts 250°
2026-04-26 16:05 52.02866 -0.18968 2913 ft 120 kts 249°
2026-04-26 16:05 52.02603 -0.20262 2909 ft 121 kts 249°
2026-04-26 16:05 52.02342 -0.21553 2902 ft 119 kts 250°
2026-04-26 16:06 52.02091 -0.22821 2896 ft 117 kts 250°
2026-04-26 16:06 52.01835 -0.24043 2904 ft 117 kts 250°
2026-04-26 16:06 52.01579 -0.25302 2908 ft 117 kts 249°
2026-04-26 16:06 52.01315 -0.26567 2899 ft 117 kts 249°
2026-04-26 16:07 52.01058 -0.27806 2902 ft 116 kts 249°
2026-04-26 16:07 52.00797 -0.29054 2908 ft 117 kts 250°
2026-04-26 16:07 52.00530 -0.30290 2902 ft 116 kts 249°
2026-04-26 16:07 52.00268 -0.31533 2897 ft 117 kts 249°
2026-04-26 16:08 52.00011 -0.32768 2905 ft 116 kts 250°
2026-04-26 16:08 51.99742 -0.34011 2904 ft 117 kts 249°
2026-04-26 16:08 51.99465 -0.35258 2905 ft 117 kts 249°
2026-04-26 16:08 51.99193 -0.36496 2901 ft 115 kts 250°
2026-04-26 16:09 51.98921 -0.37721 2904 ft 115 kts 249°
2026-04-26 16:09 51.98651 -0.38954 2904 ft 117 kts 248°
2026-04-26 16:09 51.98390 -0.40211 2906 ft 117 kts 248°
2026-04-26 16:09 51.98121 -0.41459 2903 ft 119 kts 250°
2026-04-26 16:10 51.97853 -0.42711 2898 ft 116 kts 249°
2026-04-26 16:10 51.97592 -0.43940 2898 ft 116 kts 249°
2026-04-26 16:10 51.97325 -0.45170 2902 ft 116 kts 249°
2026-04-26 16:10 51.97046 -0.46402 2900 ft 117 kts 249°
2026-04-26 16:11 51.96770 -0.47625 2896 ft 115 kts 249°
2026-04-26 16:11 51.96496 -0.48836 2900 ft 114 kts 249°
2026-04-26 16:11 51.96227 -0.50042 2892 ft 112 kts 249°
2026-04-26 16:11 51.95955 -0.51212 2899 ft 114 kts 247°
2026-04-26 16:12 51.95668 -0.52413 2911 ft 115 kts 246°
2026-04-26 16:12 51.95368 -0.53638 2908 ft 118 kts 247°
2026-04-26 16:12 51.94752 -0.56086 2899 ft 116 kts 246°
2026-04-26 16:13 51.94435 -0.57298 2895 ft 117 kts 246°
2026-04-26 16:13 51.94117 -0.58498 2898 ft 115 kts 245°
2026-04-26 16:13 51.93801 -0.59694 2902 ft 117 kts 246°
2026-04-26 16:13 51.93489 -0.60901 2894 ft 118 kts 246°
2026-04-26 16:14 51.93180 -0.62117 2901 ft 117 kts 246°
2026-04-26 16:14 51.92862 -0.63346 2900 ft 119 kts 245°
2026-04-26 16:14 51.92219 -0.65820 2901 ft 119 kts 245°
2026-04-26 16:15 51.91902 -0.67020 2897 ft 118 kts 246°
2026-04-26 16:15 51.91578 -0.68232 2892 ft 117 kts 245°
2026-04-26 16:15 51.91253 -0.69437 2892 ft 116 kts 244°
2026-04-26 16:16 51.90608 -0.71900 2901 ft 119 kts 246°
2026-04-26 16:16 51.90288 -0.73125 2897 ft 118 kts 246°
2026-04-26 16:16 51.89958 -0.74356 2901 ft 120 kts 245°
2026-04-26 16:16 51.89636 -0.75599 2901 ft 122 kts 245°
2026-04-26 16:17 51.89306 -0.76871 2894 ft 122 kts 245°
2026-04-26 16:17 51.88984 -0.78119 2884 ft 118 kts 245°
2026-04-26 16:17 51.88671 -0.79338 2885 ft 116 kts 245°
2026-04-26 16:17 51.88359 -0.80554 2883 ft 115 kts 245°
2026-04-26 16:18 51.88051 -0.81744 2886 ft 114 kts 245°
2026-04-26 16:18 51.87528 -0.83728 2881 ft 115 kts 245°